• In Netherlands
  • List of Countries
  • For 7 days
  • Water Temperature
  • Satellite Maps
  • Weather Map
  • Weather Widgets
  • user-avatar
    Login

    Hourly Weather Pinsk

    Today, 25 July, Tuesday

    Time Temperature Precipitation Wind Pressure Humidity
    00:00 +20°C° 0 mm 1 mps 743 mmHg 89%
    01:00 +19°C° 0 mm 1 mps 743 mmHg 91%
    02:00 +19°C° 0 mm 1 mps 743 mmHg 92%
    03:00 +18°C° 0 mm 2 mps 742 mmHg 93%
    04:00 +18°C° 0 mm 2 mps 742 mmHg 93%
    05:00 +18°C° 0 mm 3 mps 741 mmHg 94%
    06:00 +19°C° 0 mm 3 mps 741 mmHg 90%
    07:00 +21°C° 0 mm 3 mps 740 mmHg 86%
    08:00 +22°C° 0 mm 4 mps 740 mmHg 82%
    09:00 +25°C° 0.2 mm 4 mps 740 mmHg 77%
    10:00 +26°C° 0.2 mm 4 mps 740 mmHg 72%
    11:00 +28°C° 0.2 mm 4 mps 740 mmHg 67%
    12:00 +28°C° 1.8 mm 4 mps 739 mmHg 70%
    13:00 +27°C° 1.8 mm 3 mps 739 mmHg 74%
    14:00 +27°C° 1.8 mm 3 mps 739 mmHg 78%
    15:00 +27°C° 0.8 mm 3 mps 738 mmHg 77%
    16:00 +27°C° 0.8 mm 4 mps 738 mmHg 77%
    17:00 +27°C° 0.8 mm 4 mps 738 mmHg 77%
    18:00 +26°C° 1.6 mm 3 mps 738 mmHg 80%
    19:00 +25°C° 1.6 mm 3 mps 738 mmHg 83%
    20:00 +23°C° 1.6 mm 2 mps 738 mmHg 87%
    21:00 +23°C° 0.7 mm 2 mps 738 mmHg 88%
    22:00 +21°C° 0.7 mm 2 mps 738 mmHg 90%
    23:00 +21°C° 0.7 mm 2 mps 737 mmHg 92%

    Tomorrow, 26 July, Wednesday

    Time Temperature Precipitation Wind Pressure Humidity
    00:00 +20°C° 0.6 mm 2 mps 737 mmHg 93%
    01:00 +20°C° 0.6 mm 2 mps 737 mmHg 94%
    02:00 +20°C° 0.6 mm 2 mps 738 mmHg 96%
    03:00 +19°C° 0.3 mm 3 mps 737 mmHg 96%
    04:00 +19°C° 0.3 mm 3 mps 737 mmHg 97%
    05:00 +19°C° 0.3 mm 3 mps 737 mmHg 97%
    06:00 +19°C° 0 mm 3 mps 738 mmHg 95%
    07:00 +19°C° 0 mm 4 mps 738 mmHg 93%
    08:00 +20°C° 0 mm 4 mps 738 mmHg 92%
    09:00 +20°C° 0 mm 4 mps 739 mmHg 89%
    10:00 +21°C° 0 mm 3 mps 739 mmHg 86%
    11:00 +21°C° 0 mm 3 mps 739 mmHg 83%
    12:00 +22°C° 0.2 mm 3 mps 739 mmHg 81%
    13:00 +22°C° 0.2 mm 4 mps 740 mmHg 79%
    14:00 +22°C° 0.2 mm 4 mps 740 mmHg 77%
    15:00 +22°C° 0.3 mm 3 mps 740 mmHg 78%
    16:00 +22°C° 0.3 mm 3 mps 740 mmHg 79%
    17:00 +21°C° 0.3 mm 3 mps 740 mmHg 80%
    18:00 +21°C° 0.1 mm 3 mps 740 mmHg 82%
    19:00 +20°C° 0.1 mm 2 mps 741 mmHg 83%
    20:00 +19°C° 0.1 mm 2 mps 741 mmHg 85%
    21:00 +18°C° 0 mm 2 mps 741 mmHg 86%
    22:00 +18°C° 0 mm 2 mps 741 mmHg 86%
    23:00 +17°C° 0 mm 2 mps 742 mmHg 87%

    Day after tomorrow, 27 July, Thursday

    Time Temperature Precipitation Wind Pressure Humidity
    00:00 +16°C° 0 mm 2 mps 742 mmHg 88%
    01:00 +16°C° 0 mm 2 mps 742 mmHg 89%
    02:00 +16°C° 0 mm 1 mps 742 mmHg 90%
    03:00 +15°C° 0 mm 1 mps 742 mmHg 89%
    04:00 +15°C° 0 mm 1 mps 742 mmHg 89%
    05:00 +15°C° 0 mm 1 mps 742 mmHg 88%
    06:00 +18°C° 0 mm 1 mps 743 mmHg 83%
    07:00 +20°C° 0 mm 1 mps 743 mmHg 78%
    08:00 +21°C° 0 mm 1 mps 743 mmHg 72%
    09:00 +23°C° 0 mm 1 mps 743 mmHg 66%
    10:00 +25°C° 0 mm 1 mps 743 mmHg 59%
    11:00 +26°C° 0 mm 1 mps 743 mmHg 52%
    12:00 +27°C° 0 mm 1 mps 743 mmHg 50%
    13:00 +27°C° 0 mm 1 mps 743 mmHg 48%
    14:00 +28°C° 0 mm 1 mps 743 mmHg 45%
    15:00 +28°C° 0 mm 1 mps 743 mmHg 47%
    16:00 +27°C° 0 mm 1 mps 743 mmHg 49%
    17:00 +27°C° 0 mm 1 mps 743 mmHg 51%
    18:00 +26°C° 0 mm 1 mps 743 mmHg 56%
    19:00 +24°C° 0 mm 1 mps 743 mmHg 61%
    20:00 +22°C° 0 mm 1 mps 743 mmHg 66%
    21:00 +22°C° 0 mm 1 mps 743 mmHg 69%
    22:00 +21°C° 0 mm 1 mps 743 mmHg 72%
    23:00 +19°C° 0 mm 2 mps 743 mmHg 74%

    28 July, Friday

    Time Temperature Precipitation Wind Pressure Humidity
    00:00 +19°C° 0 mm 2 mps 743 mmHg 76%
    01:00 +18°C° 0 mm 2 mps 743 mmHg 78%
    02:00 +18°C° 0 mm 2 mps 743 mmHg 80%
    03:00 +18°C° 0 mm 2 mps 743 mmHg 81%
    04:00 +18°C° 0 mm 2 mps 743 mmHg 82%
    05:00 +17°C° 0 mm 2 mps 743 mmHg 82%
    06:00 +19°C° 0 mm 2 mps 743 mmHg 80%
    07:00 +21°C° 0 mm 1 mps 743 mmHg 77%
    08:00 +22°C° 0 mm 1 mps 743 mmHg 74%
    09:00 +23°C° 0.2 mm 1 mps 743 mmHg 72%
    10:00 +23°C° 0.2 mm 1 mps 743 mmHg 71%
    11:00 +24°C° 0.2 mm 1 mps 743 mmHg 69%
    12:00 +24°C° 0.3 mm 2 mps 743 mmHg 68%
    13:00 +25°C° 0.3 mm 2 mps 743 mmHg 68%
    14:00 +25°C° 0.3 mm 3 mps 743 mmHg 67%
    15:00 +25°C° 0.4 mm 3 mps 743 mmHg 70%
    16:00 +24°C° 0.4 mm 3 mps 743 mmHg 73%
    17:00 +24°C° 0.4 mm 3 mps 743 mmHg 76%
    18:00 +23°C° 0.3 mm 2 mps 743 mmHg 81%
    19:00 +20°C° 0.3 mm 2 mps 743 mmHg 85%
    20:00 +19°C° 0.3 mm 2 mps 744 mmHg 90%
    21:00 +19°C° 0 mm 2 mps 744 mmHg 91%
    22:00 +18°C° 0 mm 2 mps 744 mmHg 93%
    23:00 +17°C° 0 mm 2 mps 744 mmHg 94%

    29 July, Saturday

    Time Temperature Precipitation Wind Pressure Humidity
    00:00 +17°C° 0 mm 3 mps 744 mmHg 94%
    01:00 +17°C° 0 mm 3 mps 744 mmHg 95%
    02:00 +16°C° 0 mm 3 mps 744 mmHg 95%
    03:00 +15°C° 0 mm 4 mps 745 mmHg 96%
    04:00 +15°C° 0 mm 4 mps 745 mmHg 96%
    05:00 +15°C° 0 mm 4 mps 745 mmHg 97%
    06:00 +15°C° 0 mm 4 mps 745 mmHg 94%
    07:00 +16°C° 0 mm 5 mps 745 mmHg 92%
    08:00 +16°C° 0 mm 5 mps 746 mmHg 90%
    09:00 +17°C° 0 mm 6 mps 746 mmHg 85%
    10:00 +19°C° 0 mm 6 mps 747 mmHg 80%
    11:00 +19°C° 0 mm 6 mps 747 mmHg 75%
    12:00 +21°C° 0 mm 6 mps 747 mmHg 69%
    13:00 +22°C° 0 mm 7 mps 747 mmHg 64%
    14:00 +23°C° 0 mm 7 mps 747 mmHg 58%
    15:00 +23°C° 0 mm 7 mps 747 mmHg 58%
    16:00 +23°C° 0 mm 6 mps 747 mmHg 59%
    17:00 +23°C° 0 mm 6 mps 747 mmHg 59%
    18:00 +22°C° 0 mm 5 mps 748 mmHg 65%
    19:00 +20°C° 0 mm 4 mps 748 mmHg 71%
    20:00 +19°C° 0 mm 3 mps 748 mmHg 78%
    21:00 +18°C° 0 mm 3 mps 749 mmHg 80%
    22:00 +18°C° 0 mm 4 mps 749 mmHg 82%
    23:00 +17°C° 0 mm 4 mps 749 mmHg 84%

    30 July, Sunday

    Time Temperature Precipitation Wind Pressure Humidity
    00:00 +15°C° 0 mm 4 mps 749 mmHg 86%
    01:00 +16°C° 0 mm 3 mps 750 mmHg 88%
    02:00 +14°C° 0 mm 3 mps 750 mmHg 91%
    03:00 +13°C° 0 mm 3 mps 750 mmHg 91%
    04:00 +13°C° 0 mm 3 mps 750 mmHg 92%
    05:00 +12°C° 0 mm 3 mps 750 mmHg 93%
    06:00 +14°C° 0 mm 3 mps 751 mmHg 85%
    07:00 +15°C° 0 mm 4 mps 751 mmHg 77%
    08:00 +18°C° 0 mm 4 mps 751 mmHg 70%
    09:00 +19°C° 0 mm 4 mps 751 mmHg 64%
    10:00 +21°C° 0 mm 4 mps 751 mmHg 58%
    11:00 +22°C° 0 mm 4 mps 751 mmHg 52%
    12:00 +23°C° 0 mm 4 mps 751 mmHg 51%
    13:00 +25°C° 0 mm 5 mps 751 mmHg 50%
    14:00 +25°C° 0 mm 5 mps 751 mmHg 48%
    15:00 +25°C° 0 mm 4 mps 751 mmHg 50%
    16:00 +25°C° 0 mm 4 mps 751 mmHg 51%
    17:00 +25°C° 0 mm 4 mps 751 mmHg 53%
    18:00 +22°C° 0 mm 3 mps 751 mmHg 60%
    19:00 +21°C° 0 mm 3 mps 751 mmHg 67%
    20:00 +19°C° 0 mm 2 mps 751 mmHg 74%
    21:00 +18°C° 0 mm 2 mps 751 mmHg 77%
    22:00 +17°C° 0 mm 2 mps 751 mmHg 80%
    23:00 +16°C° 0 mm 1 mps 751 mmHg 82%
    Show more